TRA86Q LEZL-EHEH

Flight info

Callsign TRA86Q
Flight time 2h 29m
Altitude 36000
Route HIJ M30 PARKA N858 DGO L176 LUSEM DCT LULUT/N0454F380 DCT ADABI DCT BOKNO UN858 VANAD UN874 ARSAF DCT EGOZE DCT CMB DCT VEKIN DCT ADUTO N873 FERDI Y18 DENUT
Aircraft A21N/M-SDE3FGHIRWY/LB1

Departure

Time 2026-05-06 21:00
Airport Seville Airport (LEZL)

Arrival

Time 2026-05-06 23:29
Airport Eindhoven Airport (EHEH)
Time Latitude Longitude Altitude Speed Heading
2026-05-06 20:24 37.42242 -5.89909 94 ft 0 kts 315°
2026-05-06 20:48 37.42240 -5.89908 94 ft 2 kts 315°
2026-05-06 20:48 37.42221 -5.89887 94 ft 4 kts 328°
2026-05-06 20:49 37.42198 -5.89873 94 ft 4 kts 351°
2026-05-06 20:49 37.42173 -5.89875 94 ft 4 kts 31°
2026-05-06 20:49 37.42165 -5.89882 93 ft 0 kts 44°
2026-05-06 20:52 37.42167 -5.89879 94 ft 1 kts 44°
2026-05-06 20:52 37.42177 -5.89867 92 ft 3 kts 44°
2026-05-06 20:52 37.42193 -5.89847 93 ft 4 kts 44°
2026-05-06 20:52 37.42216 -5.89819 94 ft 5 kts 44°
2026-05-06 20:53 37.42244 -5.89784 94 ft 6 kts 45°
2026-05-06 20:53 37.42267 -5.89738 94 ft 6 kts 85°
2026-05-06 20:53 37.42243 -5.89692 94 ft 7 kts 133°
2026-05-06 20:53 37.42210 -5.89649 94 ft 7 kts 134°
2026-05-06 20:54 37.42178 -5.89608 95 ft 6 kts 135°
2026-05-06 20:54 37.42143 -5.89564 99 ft 9 kts 134°
2026-05-06 20:54 37.42093 -5.89498 98 ft 11 kts 134°
2026-05-06 20:54 37.42039 -5.89429 98 ft 11 kts 134°
2026-05-06 20:55 37.41988 -5.89354 101 ft 11 kts 114°
2026-05-06 20:55 37.41983 -5.89246 100 ft 15 kts 89°
2026-05-06 20:55 37.41983 -5.89099 101 ft 19 kts 90°
2026-05-06 20:55 37.41983 -5.88917 102 ft 21 kts 90°
2026-05-06 20:56 37.41985 -5.88734 103 ft 21 kts 89°
2026-05-06 20:56 37.41985 -5.88551 104 ft 21 kts 89°
2026-05-06 20:56 37.41986 -5.88363 105 ft 21 kts 90°
2026-05-06 20:56 37.41986 -5.88184 106 ft 20 kts 90°
2026-05-06 20:57 37.41987 -5.88021 107 ft 18 kts 90°
2026-05-06 20:57 37.41987 -5.87869 108 ft 17 kts 89°
2026-05-06 20:57 37.41988 -5.87717 109 ft 18 kts 90°
2026-05-06 20:57 37.41987 -5.87563 110 ft 17 kts 96°
2026-05-06 20:58 37.41934 -5.87442 113 ft 14 kts 144°
2026-05-06 20:58 37.41853 -5.87432 116 ft 10 kts 187°
2026-05-06 20:58 37.41803 -5.87443 114 ft 4 kts 218°
2026-05-06 20:58 37.41800 -5.87478 116 ft 5 kts 270°
2026-05-06 20:59 37.41800 -5.87574 115 ft 25 kts 270°
2026-05-06 20:59 37.41798 -5.88113 107 ft 95 kts 270°
2026-05-06 20:59 37.41794 -5.89173 101 ft 145 kts 270°
2026-05-06 20:59 37.41801 -5.90599 235 ft 172 kts 269°
2026-05-06 21:00 37.41847 -5.92110 760 ft 175 kts 274°
2026-05-06 21:00 37.42394 -5.93478 1273 ft 183 kts 311°
2026-05-06 21:00 37.43382 -5.94609 1495 ft 202 kts 315°
2026-05-06 21:00 37.44494 -5.95856 1621 ft 227 kts 315°
2026-05-06 21:01 37.45735 -5.97260 1918 ft 250 kts 315°
2026-05-06 21:01 37.47049 -5.98747 2629 ft 257 kts 315°
2026-05-06 21:01 37.48388 -6.00272 3360 ft 264 kts 315°
2026-05-06 21:01 37.49760 -6.01843 4097 ft 269 kts 316°
2026-05-06 21:02 37.51147 -6.03445 4873 ft 273 kts 316°
2026-05-06 21:02 37.52555 -6.05084 5619 ft 278 kts 317°
2026-05-06 21:02 37.53981 -6.06746 6393 ft 281 kts 318°
2026-05-06 21:02 37.55422 -6.08425 7151 ft 284 kts 317°
2026-05-06 21:03 37.56938 -6.10029 7906 ft 286 kts 329°
2026-05-06 21:03 37.58804 -6.10877 8607 ft 289 kts 355°
2026-05-06 21:03 37.60795 -6.10672 9298 ft 290 kts 20°
2026-05-06 21:03 37.62544 -6.09450 9985 ft 289 kts 42°
2026-05-06 21:04 37.64107 -6.07725 10246 ft 310 kts 43°
2026-05-06 21:04 37.65778 -6.05854 10391 ft 332 kts 43°
2026-05-06 21:04 37.67541 -6.03882 10841 ft 343 kts 43°
2026-05-06 21:04 37.69344 -6.01871 11428 ft 349 kts 43°
2026-05-06 21:05 37.71184 -5.99826 12025 ft 355 kts 42°
2026-05-06 21:05 37.73052 -5.97751 12650 ft 360 kts 42°
2026-05-06 21:05 37.74950 -5.95642 13257 ft 366 kts 42°
2026-05-06 21:05 37.76879 -5.93499 13812 ft 372 kts 42°
2026-05-06 21:06 37.78833 -5.91322 14348 ft 377 kts 42°
2026-05-06 21:06 37.80810 -5.89116 14928 ft 381 kts 42°
2026-05-06 21:06 37.82806 -5.86891 15513 ft 384 kts 41°
2026-05-06 21:06 37.84824 -5.84643 16105 ft 388 kts 41°
2026-05-06 21:07 37.86857 -5.82376 16672 ft 392 kts 41°
2026-05-06 21:07 37.88885 -5.80109 17232 ft 396 kts 41°
2026-05-06 21:07 37.90983 -5.77762 17797 ft 399 kts 41°
2026-05-06 21:07 37.93045 -5.75450 18315 ft 403 kts 41°
2026-05-06 21:08 37.95153 -5.73079 18796 ft 407 kts 41°
2026-05-06 21:08 37.97275 -5.70690 19260 ft 410 kts 41°
2026-05-06 21:08 37.99416 -5.68287 19739 ft 413 kts 41°
2026-05-06 21:08 38.01575 -5.65865 20212 ft 416 kts 41°
2026-05-06 21:09 38.03746 -5.63420 20671 ft 419 kts 41°
2026-05-06 21:09 38.05934 -5.60959 21145 ft 422 kts 41°
2026-05-06 21:09 38.08137 -5.58479 21628 ft 425 kts 41°
2026-05-06 21:09 38.10356 -5.55978 22102 ft 427 kts 41°
2026-05-06 21:10 38.12584 -5.53464 22554 ft 431 kts 41°
2026-05-06 21:10 38.14827 -5.50926 22990 ft 434 kts 41°
2026-05-06 21:10 38.17089 -5.48365 23418 ft 437 kts 41°
2026-05-06 21:10 38.19365 -5.45789 23780 ft 440 kts 41°
2026-05-06 21:11 38.21656 -5.43195 24140 ft 442 kts 41°
2026-05-06 21:11 38.23964 -5.40584 24498 ft 445 kts 41°
2026-05-06 21:11 38.26279 -5.37960 24851 ft 447 kts 41°
2026-05-06 21:11 38.28609 -5.35314 25199 ft 450 kts 41°
2026-05-06 21:12 38.30951 -5.32652 25530 ft 453 kts 41°
2026-05-06 21:12 38.33308 -5.29971 25869 ft 456 kts 40°
2026-05-06 21:12 38.35679 -5.27276 26210 ft 458 kts 40°
2026-05-06 21:12 38.38063 -5.24563 26549 ft 461 kts 40°
2026-05-06 21:13 38.40457 -5.21830 26881 ft 463 kts 40°
2026-05-06 21:13 38.42861 -5.19080 27211 ft 466 kts 40°
2026-05-06 21:13 38.45292 -5.16340 27530 ft 468 kts 37°
2026-05-06 21:13 38.47976 -5.14002 27841 ft 467 kts 27°
2026-05-06 21:14 38.50923 -5.12267 28146 ft 466 kts 17°
2026-05-06 21:14 38.54041 -5.11175 28461 ft 464 kts
2026-05-06 21:14 38.57241 -5.10750 28768 ft 462 kts 357°
2026-05-06 21:14 38.60442 -5.10944 29054 ft 461 kts 351°
2026-05-06 21:15 38.63643 -5.11277 29335 ft 463 kts 351°
2026-05-06 21:15 38.66863 -5.11612 29614 ft 465 kts 351°
2026-05-06 21:15 38.70090 -5.11944 29894 ft 467 kts 351°
2026-05-06 21:15 38.73339 -5.12274 30143 ft 469 kts 351°
2026-05-06 21:16 38.76598 -5.12604 30386 ft 471 kts 351°
2026-05-06 21:16 38.79866 -5.12938 30649 ft 472 kts 351°
2026-05-06 21:16 38.83139 -5.13272 30988 ft 472 kts 351°
2026-05-06 21:16 38.86413 -5.13604 31350 ft 471 kts 351°
2026-05-06 21:17 38.89675 -5.13937 31719 ft 470 kts 351°
2026-05-06 21:17 38.92933 -5.14269 32084 ft 469 kts 351°
2026-05-06 21:17 38.96211 -5.14299 32437 ft 474 kts
2026-05-06 21:17 38.99481 -5.13643 32785 ft 479 kts 10°
2026-05-06 21:18 39.02658 -5.12305 33146 ft 482 kts 20°
2026-05-06 21:18 39.05646 -5.10329 33527 ft 485 kts 30°
2026-05-06 21:18 39.08491 -5.07991 33867 ft 485 kts 30°
2026-05-06 21:18 39.11328 -5.05646 34161 ft 484 kts 30°
2026-05-06 21:19 39.14159 -5.03303 34444 ft 484 kts 30°
2026-05-06 21:19 39.16988 -5.00960 34732 ft 483 kts 30°
2026-05-06 21:19 39.19811 -4.98616 35016 ft 483 kts 30°
2026-05-06 21:19 39.22631 -4.96270 35295 ft 482 kts 30°
2026-05-06 21:20 39.25444 -4.93931 35589 ft 480 kts 30°
2026-05-06 21:20 39.27302 -4.92387 35776 ft 480 kts 30°
2026-05-06 21:20 39.31015 -4.89301 35876 ft 477 kts 30°
2026-05-06 21:21 39.36571 -4.84667 35878 ft 475 kts 30°
2026-05-06 21:21 39.42113 -4.80033 35881 ft 474 kts 30°
2026-05-06 21:22 39.47654 -4.75392 35882 ft 474 kts 30°
2026-05-06 21:22 39.53190 -4.70754 35884 ft 474 kts 30°
2026-05-06 21:23 39.58722 -4.66114 35886 ft 474 kts 30°
2026-05-06 21:23 39.64253 -4.61463 35890 ft 474 kts 30°
2026-05-06 21:24 39.69781 -4.56798 35887 ft 474 kts 30°
2026-05-06 21:24 39.75303 -4.52123 35912 ft 473 kts 30°
2026-05-06 21:25 39.80814 -4.47457 35910 ft 472 kts 30°
2026-05-06 21:25 39.86320 -4.42790 35910 ft 472 kts 30°
2026-05-06 21:26 39.91815 -4.38121 35909 ft 472 kts 30°
2026-05-06 21:26 39.97353 -4.33541 35925 ft 469 kts 24°
2026-05-06 21:27 40.03233 -4.29904 35915 ft 468 kts 21°
2026-05-06 21:27 40.09132 -4.26317 35908 ft 468 kts 21°
2026-05-06 21:28 40.15033 -4.22721 35914 ft 468 kts 22°
2026-05-06 21:28 40.20927 -4.19116 35922 ft 468 kts 22°
2026-05-06 21:29 40.25828 -4.16108 35923 ft 468 kts 22°
2026-05-06 21:29 40.31720 -4.12482 35925 ft 468 kts 22°
2026-05-06 21:30 40.37607 -4.08868 35923 ft 468 kts 22°
2026-05-06 21:30 40.43512 -4.05239 35947 ft 468 kts 22°
2026-05-06 21:31 40.49401 -4.01602 35954 ft 468 kts 22°
2026-05-06 21:31 40.55292 -3.97943 35946 ft 468 kts 22°
2026-05-06 21:32 40.61178 -3.94294 35951 ft 468 kts 22°
2026-05-06 21:32 40.70008 -3.88817 35961 ft 468 kts 22°
2026-05-06 21:33 40.75890 -3.85144 35949 ft 468 kts 22°
2026-05-06 21:33 40.81771 -3.81468 35957 ft 468 kts 22°
2026-05-06 21:34 40.87651 -3.77785 35973 ft 467 kts 22°
2026-05-06 21:34 40.93521 -3.74112 35970 ft 467 kts 22°
2026-05-06 21:35 40.99386 -3.70438 35967 ft 466 kts 22°
2026-05-06 21:35 41.05243 -3.66750 35966 ft 466 kts 22°
2026-05-06 21:36 41.11058 -3.63066 35981 ft 466 kts 22°
2026-05-06 21:36 41.16921 -3.59394 35975 ft 465 kts 21°
2026-05-06 21:37 41.22885 -3.56086 35974 ft 464 kts 18°
2026-05-06 21:37 41.28900 -3.52947 35966 ft 464 kts 18°
2026-05-06 21:38 41.34896 -3.49747 35982 ft 464 kts 19°
2026-05-06 21:38 41.40868 -3.46462 35978 ft 465 kts 19°
2026-05-06 21:39 41.46837 -3.43149 35968 ft 465 kts 19°
2026-05-06 21:39 41.52845 -3.39829 35992 ft 464 kts 19°
2026-05-06 21:40 41.58821 -3.36545 35982 ft 464 kts 19°
2026-05-06 21:40 41.64796 -3.33268 35990 ft 464 kts 19°
2026-05-06 21:41 41.70760 -3.29963 35986 ft 464 kts 20°
2026-05-06 21:41 41.76687 -3.26664 35999 ft 464 kts 20°
2026-05-06 21:42 41.82650 -3.23342 35996 ft 464 kts 20°
2026-05-06 21:42 41.88614 -3.20033 36008 ft 464 kts 20°
2026-05-06 21:43 41.94569 -3.16705 36032 ft 464 kts 20°
2026-05-06 21:43 42.00525 -3.13370 36038 ft 463 kts 20°
2026-05-06 21:44 42.06474 -3.10042 36032 ft 463 kts 20°
2026-05-06 21:44 42.12411 -3.06698 36034 ft 462 kts 20°
2026-05-06 21:45 42.18343 -3.03355 36057 ft 462 kts 20°
2026-05-06 21:45 42.24271 -3.00008 36060 ft 462 kts 20°
2026-05-06 21:46 42.30193 -2.96660 36050 ft 461 kts 20°
2026-05-06 21:46 42.36111 -2.93317 36055 ft 461 kts 20°
2026-05-06 21:47 42.42025 -2.89955 36079 ft 460 kts 20°
2026-05-06 21:47 42.47506 -2.85467 36064 ft 464 kts 39°
2026-05-06 21:48 42.52328 -2.79655 36063 ft 464 kts 40°
2026-05-06 21:48 42.57156 -2.73832 36063 ft 464 kts 40°
2026-05-06 21:49 42.61984 -2.68003 36064 ft 464 kts 40°
2026-05-06 21:49 42.66801 -2.62169 36062 ft 464 kts 40°
2026-05-06 21:50 42.71619 -2.56327 36063 ft 464 kts 40°
2026-05-06 21:50 42.76404 -2.50518 36063 ft 464 kts 40°
2026-05-06 21:51 42.81217 -2.44654 36063 ft 464 kts 40°
2026-05-06 21:51 42.86025 -2.38782 36064 ft 464 kts 40°
2026-05-06 21:52 42.90833 -2.32900 36065 ft 464 kts 40°
2026-05-06 21:52 42.95634 -2.27008 36067 ft 464 kts 40°
2026-05-06 21:53 43.00435 -2.21096 36081 ft 465 kts 40°
2026-05-06 21:53 43.05231 -2.15179 36078 ft 464 kts 40°
2026-05-06 21:54 43.10024 -2.09254 36075 ft 464 kts 40°
2026-05-06 21:54 43.14807 -2.03329 36073 ft 464 kts 40°
2026-05-06 21:55 43.19585 -1.97387 36071 ft 464 kts 40°
2026-05-06 21:55 43.24368 -1.91447 36076 ft 464 kts 40°
2026-05-06 21:56 43.29142 -1.85509 36071 ft 463 kts 40°
2026-05-06 21:56 43.34380 -1.80484 36068 ft 458 kts 27°
2026-05-06 21:57 43.39890 -1.76073 36064 ft 459 kts 29°
2026-05-06 21:57 43.45241 -1.71259 36076 ft 460 kts 32°
2026-05-06 21:58 43.50536 -1.66311 36073 ft 460 kts 31°
2026-05-06 21:58 43.55854 -1.61419 36071 ft 459 kts 31°
2026-05-06 21:59 43.61195 -1.56591 36059 ft 459 kts 31°
2026-05-06 21:59 43.66537 -1.51760 36070 ft 459 kts 31°
2026-05-06 22:00 43.71870 -1.46900 36062 ft 459 kts 31°
2026-05-06 22:00 43.77165 -1.42060 36058 ft 459 kts 31°
2026-05-06 22:01 43.82496 -1.37182 36071 ft 460 kts 31°
2026-05-06 22:01 43.87827 -1.32290 36065 ft 459 kts 31°
2026-05-06 22:02 43.93148 -1.27399 36063 ft 459 kts 31°
2026-05-06 22:02 43.98496 -1.22466 36058 ft 458 kts 31°
2026-05-06 22:03 44.03806 -1.17558 36066 ft 458 kts 31°
2026-05-06 22:03 44.09109 -1.12648 36064 ft 457 kts 31°
2026-05-06 22:04 44.14402 -1.07743 36056 ft 457 kts 31°
2026-05-06 22:04 44.19690 -1.02833 36056 ft 457 kts 31°
2026-05-06 22:05 44.24967 -0.97909 36058 ft 456 kts 31°
2026-05-06 22:05 44.30220 -0.93013 36169 ft 458 kts 31°
2026-05-06 22:06 44.32873 -0.90537 36378 ft 460 kts 32°
2026-05-06 22:06 44.35568 -0.88016 36598 ft 460 kts 32°
2026-05-06 22:06 44.38198 -0.85553 36805 ft 461 kts 31°
2026-05-06 22:06 44.40969 -0.83330 37006 ft 459 kts 23°
2026-05-06 22:07 44.43880 -0.81523 37249 ft 458 kts 21°
2026-05-06 22:07 44.46801 -0.79747 37476 ft 457 kts 21°
2026-05-06 22:07 44.49721 -0.77971 37684 ft 457 kts 21°
2026-05-06 22:07 44.52639 -0.76195 37865 ft 458 kts 21°
2026-05-06 22:08 44.55561 -0.74413 38027 ft 459 kts 21°
2026-05-06 22:08 44.58492 -0.72624 38028 ft 460 kts 21°
2026-05-06 22:08 44.64351 -0.69033 38027 ft 459 kts 21°
2026-05-06 22:09 44.70198 -0.65442 38029 ft 458 kts 21°
2026-05-06 22:09 44.76040 -0.61843 38032 ft 458 kts 21°
2026-05-06 22:10 44.81884 -0.58238 38034 ft 458 kts 21°
2026-05-06 22:10 44.87726 -0.54630 38038 ft 459 kts 21°
2026-05-06 22:11 44.93577 -0.51004 38043 ft 459 kts 21°
2026-05-06 22:11 44.99424 -0.47363 38050 ft 459 kts 21°
2026-05-06 22:12 45.05272 -0.43723 38042 ft 459 kts 21°
2026-05-06 22:12 45.11118 -0.40078 38031 ft 459 kts 21°
2026-05-06 22:13 45.16958 -0.36441 38034 ft 459 kts 21°
2026-05-06 22:13 45.22793 -0.32784 38051 ft 458 kts 22°
2026-05-06 22:14 45.27635 -0.29731 38030 ft 458 kts 22°
2026-05-06 22:14 45.33458 -0.26069 38030 ft 458 kts 22°
2026-05-06 22:15 45.39279 -0.22405 38041 ft 457 kts 22°
2026-05-06 22:15 45.45096 -0.18726 38041 ft 457 kts 22°
2026-05-06 22:16 45.50906 -0.15046 38042 ft 457 kts 22°
2026-05-06 22:16 45.56714 -0.11362 38042 ft 457 kts 22°
2026-05-06 22:17 45.62519 -0.07674 38049 ft 456 kts 22°
2026-05-06 22:17 45.68316 -0.03968 38044 ft 456 kts 22°
2026-05-06 22:18 45.74106 -0.00263 38031 ft 456 kts 22°
2026-05-06 22:18 45.79894 0.03449 38023 ft 456 kts 22°
2026-05-06 22:19 45.85644 0.07137 38024 ft 456 kts 22°
2026-05-06 22:19 45.91433 0.10855 38022 ft 456 kts 22°
2026-05-06 22:20 45.97219 0.14592 38032 ft 456 kts 22°
2026-05-06 22:20 46.03001 0.18334 38028 ft 455 kts 22°
2026-05-06 22:21 46.08780 0.22076 38025 ft 455 kts 22°
2026-05-06 22:21 46.14554 0.25822 38026 ft 455 kts 22°
2026-05-06 22:22 46.20325 0.29576 38034 ft 455 kts 22°
2026-05-06 22:22 46.26090 0.33335 38030 ft 454 kts 22°
2026-05-06 22:23 46.31850 0.37101 38025 ft 454 kts 22°
2026-05-06 22:23 46.37606 0.40874 38032 ft 454 kts 22°
2026-05-06 22:24 46.43360 0.44662 38046 ft 454 kts 23°
2026-05-06 22:24 46.49117 0.48461 38042 ft 454 kts 23°
2026-05-06 22:25 46.54878 0.52239 38042 ft 454 kts 20°
2026-05-06 22:25 46.60929 0.54651 38045 ft 451 kts 11°
2026-05-06 22:26 46.67058 0.56659 38039 ft 451 kts 11°
2026-05-06 22:26 46.73138 0.58674 38033 ft 451 kts 11°
2026-05-06 22:27 46.79266 0.60694 38030 ft 451 kts 11°
2026-05-06 22:27 46.85388 0.62733 38025 ft 451 kts 11°
2026-05-06 22:28 46.91516 0.64776 38023 ft 451 kts 11°
2026-05-06 22:28 46.97638 0.66809 38023 ft 451 kts 11°
2026-05-06 22:29 47.03765 0.68839 38022 ft 451 kts
2026-05-06 22:29 47.09984 0.69732 38022 ft 449 kts
2026-05-06 22:30 47.16215 0.70370 38029 ft 449 kts
2026-05-06 22:30 47.22454 0.71029 38045 ft 449 kts
2026-05-06 22:31 47.28688 0.71691 38047 ft 449 kts
2026-05-06 22:31 47.34923 0.72341 38050 ft 449 kts
2026-05-06 22:32 47.41157 0.72986 38053 ft 449 kts
2026-05-06 22:32 47.47387 0.73634 38051 ft 449 kts
2026-05-06 22:33 47.53466 0.75751 38047 ft 451 kts 17°
2026-05-06 22:33 47.59421 0.78698 38051 ft 451 kts 17°
2026-05-06 22:34 47.65338 0.81617 38041 ft 451 kts 17°
2026-05-06 22:34 47.71298 0.84554 38031 ft 451 kts 17°
2026-05-06 22:35 47.77257 0.87494 38026 ft 451 kts 17°
2026-05-06 22:35 47.83218 0.90455 38034 ft 452 kts 17°
2026-05-06 22:36 47.89179 0.93450 38037 ft 452 kts 17°
2026-05-06 22:36 47.95133 0.96466 38036 ft 452 kts 17°
2026-05-06 22:37 48.01088 0.99484 38043 ft 452 kts 17°
2026-05-06 22:37 48.07038 1.02509 38039 ft 452 kts 17°
2026-05-06 22:38 48.12990 1.05550 38037 ft 452 kts 17°
2026-05-06 22:38 48.18897 1.08571 38031 ft 452 kts 17°
2026-05-06 22:39 48.24848 1.11602 38042 ft 452 kts 17°
2026-05-06 22:39 48.30803 1.14628 38032 ft 452 kts 17°
2026-05-06 22:40 48.36790 1.17689 38045 ft 452 kts 17°
2026-05-06 22:40 48.42700 1.20720 38035 ft 452 kts 17°
2026-05-06 22:41 48.51614 1.25299 38032 ft 452 kts 18°
2026-05-06 22:42 48.57567 1.28359 38038 ft 451 kts 17°
2026-05-06 22:42 48.63526 1.31361 38036 ft 451 kts 17°
2026-05-06 22:43 48.69492 1.34345 38043 ft 452 kts 17°
2026-05-06 22:43 48.75460 1.37362 38045 ft 452 kts 17°
2026-05-06 22:44 48.81424 1.40390 38044 ft 452 kts 17°
2026-05-06 22:44 48.87392 1.43426 38042 ft 452 kts 17°
2026-05-06 22:45 48.93358 1.46490 38051 ft 453 kts 20°
2026-05-06 22:45 48.98795 1.51265 38042 ft 454 kts 39°
2026-05-06 22:46 49.03167 1.58219 38041 ft 455 kts 47°
2026-05-06 22:46 49.07375 1.65447 38037 ft 456 kts 47°
2026-05-06 22:47 49.11587 1.72690 38040 ft 456 kts 47°
2026-05-06 22:47 49.15800 1.79937 38031 ft 456 kts 47°
2026-05-06 22:48 49.20008 1.87198 38030 ft 457 kts 47°
2026-05-06 22:48 49.24212 1.94491 38022 ft 457 kts 48°
2026-05-06 22:49 49.28406 2.01806 38025 ft 457 kts 48°
2026-05-06 22:49 49.32607 2.09127 38026 ft 457 kts 48°
2026-05-06 22:50 49.36803 2.16453 38018 ft 457 kts 48°
2026-05-06 22:50 49.40996 2.23792 38023 ft 457 kts 48°
2026-05-06 22:51 49.45159 2.31093 38017 ft 457 kts 48°
2026-05-06 22:51 49.49349 2.38459 38018 ft 458 kts 48°
2026-05-06 22:52 49.53530 2.45847 38017 ft 458 kts 46°
2026-05-06 22:52 49.58430 2.52012 38016 ft 455 kts 31°
2026-05-06 22:53 49.63807 2.57181 38022 ft 456 kts 31°
2026-05-06 22:53 49.69177 2.62378 38022 ft 456 kts 31°
2026-05-06 22:54 49.74546 2.67596 38033 ft 456 kts 31°
2026-05-06 22:54 49.79916 2.72827 38024 ft 456 kts 31°
2026-05-06 22:55 49.85280 2.78072 38022 ft 457 kts 31°
2026-05-06 22:55 49.90652 2.83337 38019 ft 457 kts 31°
2026-05-06 22:56 49.96028 2.88613 38030 ft 457 kts 31°
2026-05-06 22:56 50.01404 2.93910 38025 ft 457 kts 31°
2026-05-06 22:57 50.06773 2.99222 38025 ft 458 kts 31°
2026-05-06 22:57 50.12148 3.04543 38027 ft 458 kts 31°
2026-05-06 22:58 50.17519 3.09867 37739 ft 457 kts 31°
2026-05-06 22:58 50.20195 3.12532 37461 ft 455 kts 32°
2026-05-06 22:58 50.22887 3.15110 37188 ft 453 kts 26°
2026-05-06 22:58 50.25731 3.17196 36894 ft 450 kts 23°
2026-05-06 22:59 50.28586 3.19189 36328 ft 449 kts 23°
2026-05-06 22:59 50.31436 3.21181 35749 ft 448 kts 23°
2026-05-06 22:59 50.34284 3.23178 35063 ft 450 kts 23°
2026-05-06 22:59 50.37148 3.25190 34253 ft 454 kts 23°
2026-05-06 23:00 50.40042 3.27227 33363 ft 456 kts 23°
2026-05-06 23:00 50.42895 3.29296 32917 ft 449 kts 24°
2026-05-06 23:00 50.45689 3.31434 32350 ft 445 kts 25°
2026-05-06 23:00 50.48446 3.33618 31781 ft 442 kts 26°
2026-05-06 23:01 50.51170 3.35811 31241 ft 438 kts 26°
2026-05-06 23:01 50.53890 3.37920 30694 ft 434 kts 24°
2026-05-06 23:01 50.56628 3.39888 30163 ft 431 kts 23°
2026-05-06 23:01 50.59372 3.41756 29571 ft 427 kts 22°
2026-05-06 23:02 50.62093 3.43563 29057 ft 422 kts 22°
2026-05-06 23:02 50.64784 3.45347 28536 ft 418 kts 22°
2026-05-06 23:02 50.67442 3.47131 28023 ft 413 kts 22°
2026-05-06 23:02 50.70067 3.48922 27530 ft 409 kts 22°
2026-05-06 23:03 50.71788 3.50110 27197 ft 406 kts 22°
2026-05-06 23:03 50.74360 3.51898 26718 ft 402 kts 22°
2026-05-06 23:03 50.76904 3.53672 26249 ft 397 kts 22°
2026-05-06 23:03 50.79421 3.55426 25794 ft 393 kts 22°
2026-05-06 23:04 50.81909 3.57163 25355 ft 389 kts 22°
2026-05-06 23:04 50.84373 3.58886 24897 ft 385 kts 22°
2026-05-06 23:04 50.86817 3.60594 24476 ft 382 kts 22°
2026-05-06 23:04 50.89241 3.62263 24046 ft 378 kts 19°
2026-05-06 23:05 50.91745 3.63437 23611 ft 373 kts
2026-05-06 23:05 50.94308 3.63880 23124 ft 368 kts 360°
2026-05-06 23:05 50.96850 3.64023 22701 ft 364 kts
2026-05-06 23:05 50.99368 3.64181 22269 ft 360 kts
2026-05-06 23:06 51.01855 3.64346 21851 ft 356 kts
2026-05-06 23:06 51.04319 3.64512 21415 ft 353 kts
2026-05-06 23:06 51.06763 3.64673 20988 ft 350 kts
2026-05-06 23:06 51.09191 3.64828 20556 ft 348 kts
2026-05-06 23:07 51.11597 3.64983 20126 ft 345 kts
2026-05-06 23:07 51.13990 3.65137 19698 ft 343 kts
2026-05-06 23:07 51.16364 3.65291 19274 ft 341 kts
2026-05-06 23:07 51.18727 3.65445 18852 ft 339 kts
2026-05-06 23:08 51.21075 3.65654 18435 ft 338 kts
2026-05-06 23:08 51.23335 3.66451 17992 ft 338 kts 17°
2026-05-06 23:08 51.25475 3.67998 17722 ft 342 kts 29°
2026-05-06 23:08 51.27468 3.70175 17486 ft 350 kts 34°
2026-05-06 23:09 51.29446 3.72449 17224 ft 351 kts 34°
2026-05-06 23:09 51.31429 3.74726 16962 ft 350 kts 34°
2026-05-06 23:09 51.33403 3.76995 16705 ft 349 kts 34°
2026-05-06 23:09 51.35370 3.79258 16449 ft 348 kts 34°
2026-05-06 23:10 51.37328 3.81512 16186 ft 346 kts 34°
2026-05-06 23:10 51.39257 3.83810 15930 ft 345 kts 40°
2026-05-06 23:10 51.40885 3.86616 15689 ft 345 kts 53°
2026-05-06 23:10 51.42066 3.89950 15425 ft 344 kts 67°
2026-05-06 23:11 51.42767 3.93607 15174 ft 344 kts 76°
2026-05-06 23:11 51.43323 3.97323 14919 ft 343 kts 76°
2026-05-06 23:11 51.43882 4.01028 14668 ft 341 kts 76°
2026-05-06 23:11 51.44438 4.04715 14415 ft 340 kts 76°
2026-05-06 23:12 51.44993 4.08394 14156 ft 338 kts 76°
2026-05-06 23:12 51.45544 4.12051 13917 ft 337 kts 76°
2026-05-06 23:12 51.46092 4.15699 13657 ft 336 kts 76°
2026-05-06 23:12 51.46637 4.19328 13404 ft 334 kts 76°
2026-05-06 23:13 51.47181 4.22946 13161 ft 333 kts 76°
2026-05-06 23:13 51.47715 4.26547 12917 ft 331 kts 76°
2026-05-06 23:13 51.48245 4.30138 12671 ft 330 kts 76°
2026-05-06 23:13 51.48770 4.33705 12435 ft 329 kts 76°
2026-05-06 23:14 51.49295 4.37266 12205 ft 327 kts 76°
2026-05-06 23:14 51.49818 4.40820 11953 ft 327 kts 76°
2026-05-06 23:14 51.50340 4.44372 11717 ft 327 kts 76°
2026-05-06 23:14 51.50858 4.47910 11473 ft 325 kts 76°
2026-05-06 23:15 51.51381 4.51432 11240 ft 324 kts 74°
2026-05-06 23:15 51.52193 4.54783 11008 ft 321 kts 61°
2026-05-06 23:15 51.53410 4.57768 10774 ft 319 kts 53°
2026-05-06 23:15 51.54706 4.60643 10538 ft 318 kts 53°
2026-05-06 23:16 51.56000 4.63529 10309 ft 316 kts 53°
2026-05-06 23:16 51.57264 4.66360 10130 ft 306 kts 53°
2026-05-06 23:16 51.58482 4.69101 9948 ft 297 kts 53°
2026-05-06 23:16 51.59671 4.71779 9681 ft 291 kts 53°
2026-05-06 23:17 51.60843 4.74419 9565 ft 290 kts 53°
2026-05-06 23:17 51.62013 4.77059 9421 ft 289 kts 53°
2026-05-06 23:17 51.63177 4.79686 9226 ft 288 kts 53°
2026-05-06 23:17 51.64334 4.82307 9022 ft 287 kts 53°
2026-05-06 23:18 51.65485 4.84915 8791 ft 285 kts 53°
2026-05-06 23:18 51.66628 4.87504 8609 ft 283 kts 53°
2026-05-06 23:18 51.67602 4.90241 8397 ft 282 kts 68°
2026-05-06 23:18 51.68006 4.93325 8205 ft 282 kts 87°
2026-05-06 23:19 51.67795 4.96458 8000 ft 283 kts 105°
2026-05-06 23:19 51.67055 4.99388 7795 ft 283 kts 114°
2026-05-06 23:19 51.66233 5.02260 7586 ft 282 kts 114°
2026-05-06 23:19 51.65418 5.05123 7382 ft 280 kts 114°
2026-05-06 23:20 51.64608 5.07971 7175 ft 278 kts 114°
2026-05-06 23:20 51.63837 5.10759 6972 ft 278 kts 109°
2026-05-06 23:20 51.63283 5.13794 6624 ft 278 kts 104°
2026-05-06 23:20 51.62478 5.16599 6248 ft 278 kts 127°
2026-05-06 23:21 51.60997 5.18568 5873 ft 279 kts 154°
2026-05-06 23:21 51.59141 5.19276 5645 ft 276 kts 180°
2026-05-06 23:21 51.57244 5.18880 5386 ft 275 kts 190°
2026-05-06 23:21 51.55363 5.18343 5116 ft 275 kts 190°
2026-05-06 23:22 51.53511 5.17806 4852 ft 274 kts 190°
2026-05-06 23:22 51.51646 5.17267 4575 ft 273 kts 190°
2026-05-06 23:22 51.49748 5.16726 4307 ft 273 kts 189°
2026-05-06 23:22 51.47906 5.16210 4054 ft 270 kts 189°
2026-05-06 23:23 51.46071 5.15701 3801 ft 265 kts 189°
2026-05-06 23:23 51.44272 5.15206 3556 ft 260 kts 188°
2026-05-06 23:23 51.42509 5.14721 3313 ft 255 kts 189°
2026-05-06 23:23 51.40776 5.14259 3071 ft 250 kts 185°
2026-05-06 23:24 51.39088 5.14421 2949 ft 237 kts 163°
2026-05-06 23:24 51.37624 5.15408 2865 ft 221 kts 144°
2026-05-06 23:24 51.36503 5.16964 2747 ft 208 kts 126°
2026-05-06 23:24 51.35656 5.18807 2637 ft 204 kts 122°
2026-05-06 23:25 51.34828 5.20624 2547 ft 197 kts 122°
2026-05-06 23:25 51.34183 5.22404 2489 ft 174 kts 102°
2026-05-06 23:25 51.34152 5.24243 2444 ft 162 kts 72°
2026-05-06 23:25 51.34657 5.25782 2329 ft 155 kts 45°
2026-05-06 23:26 51.35500 5.26829 2171 ft 153 kts 34°
2026-05-06 23:26 51.36367 5.27793 1980 ft 151 kts 34°
2026-05-06 23:26 51.37230 5.28756 1789 ft 151 kts 34°
2026-05-06 23:26 51.38091 5.29718 1565 ft 151 kts 33°
2026-05-06 23:27 51.38949 5.30675 1385 ft 150 kts 33°
2026-05-06 23:27 51.39811 5.31630 1195 ft 151 kts 33°
2026-05-06 23:27 51.40644 5.32566 958 ft 141 kts 33°
2026-05-06 23:27 51.41434 5.33446 748 ft 137 kts 34°
2026-05-06 23:28 51.42210 5.34319 557 ft 136 kts 34°
2026-05-06 23:28 51.42983 5.35190 385 ft 135 kts 34°
2026-05-06 23:28 51.43755 5.36042 213 ft 135 kts 33°
2026-05-06 23:28 51.44511 5.36890 72 ft 126 kts 34°
2026-05-06 23:29 51.45103 5.37549 71 ft 76 kts 35°
2026-05-06 23:29 51.45402 5.37887 75 ft 35 kts 36°
2026-05-06 23:29 51.45592 5.38104 71 ft 33 kts 34°
2026-05-06 23:29 51.45684 5.38206 73 ft 9 kts 34°
2026-05-06 23:30 51.45723 5.38248 75 ft 7 kts 33°
2026-05-06 23:30 51.45767 5.38294 67 ft 8 kts 33°
2026-05-06 23:30 51.45808 5.38338 65 ft 6 kts 33°
2026-05-06 23:30 51.45841 5.38373 67 ft 5 kts 34°
2026-05-06 23:31 51.45869 5.38407 70 ft 6 kts 36°
2026-05-06 23:31 51.45905 5.38452 72 ft 7 kts 49°
2026-05-06 23:31 51.45905 5.38517 71 ft 6 kts 114°
2026-05-06 23:31 51.45880 5.38577 66 ft 7 kts 125°
2026-05-06 23:32 51.45849 5.38650 72 ft 8 kts 124°
2026-05-06 23:32 51.45816 5.38724 75 ft 8 kts 125°
2026-05-06 23:32 51.45784 5.38791 72 ft 7 kts 142°
2026-05-06 23:32 51.45744 5.38781 72 ft 6 kts 212°
2026-05-06 23:33 51.45716 5.38782 71 ft 3 kts 142°
2026-05-06 23:33 51.45705 5.38809 68 ft 2 kts 124°
2026-05-06 23:33 51.45697 5.38828 70 ft 2 kts 124°
2026-05-06 23:33 51.45691 5.38842 69 ft 2 kts 124°
2026-05-06 23:34 51.45686 5.38855 64 ft 1 kts 125°
2026-05-06 23:34 51.45683 5.38860 64 ft 1 kts 125°